Regional Weather Roundup
Issued by NWS

Home | Current Version | Previous Version | Text Only | Print | Product List | Glossary On
Versions: 1 2 3 4 5 6 7 8 9 10 11 12 13 14 15 16 17 18 19 20 21 22 23 24 25 26 27 28 29 30 31 32 33 34 35 36 37 38 39 40 41 42 43 44 45 46 47 48 49 50
000
ASUS46 KSTO 240815
RWRCA

NORTHERN AND CENTRAL CA REGIONAL WEATHER ROUNDUP
NATIONAL WEATHER SERVICE SACRAMENTO CA
100 AM PDT WED MAY 24 2017

NOTE: FAIR INDICATES FEW OR NO CLOUDS BELOW 12,000 FEET WITH NO
SIGNIFICANT WEATHER AND/OR OBSTRUCTIONS TO VISIBILITY.

CAZ001-003-240900-
NORTHWEST AREA

CITY           SKY/WX    TMP DP  RH WIND       PRES   REMARKS
CRESCENT CITY  PTCLDY    54  51  90 S5        29.94F
UKIAH          CLEAR     61  52  72 CALM      29.87S
$$

CAZ006-505>513-240900-
BAY AREA

CITY           SKY/WX    TMP DP  RH WIND       PRES   REMARKS
SANTA ROSA     CLOUDY    51  49  92 S3        29.91S
SAN RAFAEL     N/A       55  MM  MM MISG
NAPA           PTCLDY    55  51  86 W14       29.90F
CONCORD        CLEAR     57  50  77 N6        29.88S
OAKLAND CITY   N/A      MM  MM  MM MISG
OAKLAND        CLOUDY    56  53  90 NW8       29.92F
SAN FRAN CITY  N/A       52  MM  96 MISG
SAN FRAN ARPT  PTCLDY    53  50  89 W12       29.91F
LIVERMORE      CLEAR     60  50  69 NW6       29.88S
HAYWARD        MOCLDY    56  49  77 NW8       29.91F
REDWOOD CITY   N/A       57  MM  86 MISG
MOFFETT ARPT   CLOUDY    58  55  90 VRB5      29.92S
SAN JOSE ARPT  CLEAR     58  55  90 W7        29.91F
$$
CAZ034-037-514>518-240900-
CENTRAL COAST

CITY           SKY/WX    TMP DP  RH WIND       PRES   REMARKS
WATSONVILLE    CLOUDY    53  53 100 SW3       29.93F
SALINAS        CLOUDY    54  51  90 CALM      29.93S
MONTEREY       CLOUDY    54  52  93 W3        29.94S
SAN LUIS OBISP CLOUDY    54  52  93 W5        29.91F FOG
SANTA MARIA    CLOUDY    52  52 100 CALM      29.92F FOG
$$
CAZ015-016-240900-
NORTHERN SACRAMENTO VALLEY

CITY           SKY/WX    TMP DP  RH WIND       PRES   REMARKS
REDDING        CLEAR     73  58  59 NW5       29.78F
RED BLUFF      CLEAR     71  59  65 NW5       29.78S
OROVILLE       CLEAR     77  55  46 SE8       29.80F
$$
CAZ016>018-240900-
SOUTHERN SACRAMENTO VALLEY

CITY           SKY/WX    TMP DP  RH WIND       PRES   REMARKS
AUBURN         CLEAR     72  52  49 E7        29.88F
BEALE AFB      CLEAR     69  59  71 SE6       29.78F
LINCOLN        FAIR      68  54  60 S7        29.80F
MARYSVILLE     CLEAR     71  59  65 SE8       29.79F
SAC INTL ARPT  CLEAR     64  53  67 S12       29.80F
MATHER AIRPORT NOT AVBL
DOWNTOWN SAC   N/A       65  MM  MM MISG
SAC EXEC ARPT  CLEAR     62  53  72 S6        29.83S
VACAVILLE      CLEAR     64  51  62 SW13      29.81F
TRAVIS AFB     CLEAR     56  51  84 SW24G35   29.80F
$$
CAZ019>021-240900-
SAN JOAQUIN VALLEY

CITY           SKY/WX    TMP DP  RH WIND       PRES   REMARKS
STOCKTON       CLEAR     65  51  60 NE3       29.83S
MODESTO        CLEAR     74  49  41 N6        29.81F
MERCED         CLEAR     72  52  49 NW6       29.81F
LEMOORE        CLEAR     74  49  41 N10       29.82F
FRESNO         CLEAR     76  58  53 W7        29.82S
HANFORD        CLEAR     78  55  44 NW13      29.81F
PORTERVILLE      N/A     71  44  37 S6        29.83F
BAKERSFIELD    PTCLDY    78  31  17 NW6       29.83F
$$
CAZ011-012-071-240900-
NORTHERN MOUNTAINS

CITY           SKY/WX    TMP DP  RH WIND       PRES   REMARKS
YREKA          CLEAR     65  52  62 NE7       29.95F
MOUNT SHASTA   CLEAR     58  46  64 CALM      29.98F
ALTURAS        CLEAR     61  40  45 CALM      30.02S
$$
CAZ011-012-071-240900-
SIERRA NEVADA MTNS

CITY           SKY/WX    TMP DP  RH WIND       PRES   REMARKS
BLUE CANYON    CLEAR     63  41  44 CALM      30.12F
TRUCKEE        CLEAR     45  39  81 E3        30.16F
TAHOE VLY ARPT CLEAR     50  39  66 S6        30.17F
MAMMOTH LAKES  FAIR      53  34  48 CALM      30.22F
$$




USA.gov is the U.S. government's official web portal to all federal, state and local government web resources and services.